Location: Caracas
(10.5033°N, 66.8422°W)
Time: 10:06:10
(UTC-04:00)

Tiangong 1 - Pass Details

Date: 18 November 2017
Orbit: 285 x 309 km, 42.8° (Epoch: 19 November)

Event Time Altitude Azimuth Distance (km) Brightness Sun altitude
Exits shadow 05:05:17 19° 37° (NE) 776 2.8 -19.2°
Maximum altitude 05:05:26 19° 42° (NE) 774 2.9 -19.2°
Drops below altitude 10° 05:07:19 10° 91° (E) 1,127 4.6 -18.7°
Sets 05:09:35 0° 111° (ESE) 1,950 6.4 -18.2°
